Tracking 20621 objects as of 29-Mar-2020
HD Live streaming from Space Station
objects crossing your sky now

COSMOS 1344

Track COSMOS 1344 now!
10-day predictions
COSMOS 1344 is classified as:


NORAD ID: 13110
Int'l Code: 1982-024A
Perigee: 971.5 km
Apogee: 1,013.3 km
Inclination: 82.9 °
Period: 104.8 minutes
Semi major axis: 7363 km
RCS: 2.1071 m2 (large)
Launch date: March 24, 1982
Source: Commonwealth of Independent States (former USSR) (CIS)
Launch site: PLESETSK MISSILE AND SPACE COMPLEX (PKMTR)
aabbcc
Your satellite tracking list
Your tracking list is empty




NASA's NSSDC Master Catalog

Two Line Element Set (TLE):
1 13110U 82024A   20088.89312837 +.00000008 +00000-0 -80107-5 0  9991
2 13110 082.9203 303.2354 0028413 186.6105 185.1661 13.73999736905613
Source of the keplerian elements: AFSPC